Weather History for Yankton, SD

Change the Weather History Date:

Tuesday, December 17, 2013

  Actual Average Record
Temperature  
Mean Temperature 27 °F -  
Max Temperature 35 °F 31 °F 62 °F (1962)
Min Temperature 19 °F 10 °F -19 °F (1989)
Degree Days  
Heating Degree Days 38    
Moisture  
Dew Point 22 °F    
Average Humidity 71    
Maximum Humidity 86    
Minimum Humidity 48    
Precipitation  
Precipitation 0.00 in - - ()
Sea Level Pressure  
Sea Level Pressure 30.15 in    
Wind  
Wind Speed 13 mph (West)    
Max Wind Speed 20 mph    
Max Gust Speed 25 mph    
Visibility 10 miles    
Events      
Averages and records for this station are not official NWS values.
T = Trace of Precipitation, MM = Missing Value Source: NWS Daily Summary

Daily Weather History Graph

Daily Weather History Graph

Search for Another Location

Airport:

Trip Planner

Search our weather history database for the weather conditions in past years. The results will help you decide how hot, cold, wet, or windy it might be!

Date:

Astronomy

Dec. 17, 2013 Rise Set
Actual Time 7:55 AM CST 4:56 PM CST
Civil Twilight 7:22 AM CST 5:28 PM CST
Nautical Twilight 6:46 AM CST 6:04 PM CST
Astronomical Twilight 6:12 AM CST 6:39 PM CST
Moon 5:39 PM CST (12/17) 7:51 AM CST (12/17)
Length of Visible Light 10h 06m
Length of Day
9h 01m
Full, 100% of the Moon is Illuminated
Dec 17
Full
Dec 25
Last Quarter
Jan 1
New
Jan 7
First Quarter
Jan 15
Full

Hourly Weather History & Observations

Time (CST) Temp. Windchill Dew Point Humidity Pressure Visibility Wind Dir Wind Speed Gust Speed Precip Events Conditions
12:15 AM 33.8 °F 26.4 °F 26.6 °F 75% 30.10 in 10.0 mi SW 9.2 mph - N/A   Clear
12:35 AM 33.8 °F 25.8 °F 26.6 °F 75% 30.09 in 10.0 mi WSW 10.4 mph - N/A   Clear
12:55 AM 33.8 °F 24.3 °F 26.6 °F 75% 30.09 in 10.0 mi WSW 13.8 mph - N/A   Mostly Cloudy
1:15 AM 33.8 °F 25.3 °F 28.4 °F 81% 30.10 in 10.0 mi West 11.5 mph - N/A   Mostly Cloudy
1:35 AM 35.6 °F 25.9 °F 28.4 °F 75% 30.10 in 10.0 mi West 16.1 mph - N/A   Partly Cloudy
1:55 AM 33.8 °F 23.5 °F 28.4 °F 81% 30.10 in 10.0 mi WSW 16.1 mph - N/A   Clear
2:15 AM 35.6 °F 25.5 °F 28.4 °F 75% 30.10 in 10.0 mi WSW 17.3 mph 25.3 mph N/A   Scattered Clouds
2:35 AM 35.6 °F 24.8 °F 28.4 °F 75% 30.12 in 10.0 mi West 19.6 mph 25.3 mph N/A   Overcast
2:55 AM 33.8 °F 23.2 °F 28.4 °F 81% 30.11 in 10.0 mi West 17.3 mph 24.2 mph N/A   Mostly Cloudy
3:15 AM 33.8 °F 23.2 °F 26.6 °F 75% 30.12 in 10.0 mi West 17.3 mph - N/A   Partly Cloudy
3:35 AM 33.8 °F 23.2 °F 26.6 °F 75% 30.11 in 10.0 mi West 17.3 mph - N/A   Scattered Clouds
3:55 AM 33.8 °F 22.8 °F 26.6 °F 75% 30.11 in 10.0 mi West 18.4 mph - N/A   Mostly Cloudy
4:15 AM 32.0 °F 20.5 °F 26.6 °F 80% 30.12 in 10.0 mi West 18.4 mph - N/A   Mostly Cloudy
4:35 AM 33.8 °F 22.5 °F 26.6 °F 75% 30.13 in 10.0 mi West 19.6 mph 24.2 mph N/A   Overcast
4:55 AM 32.0 °F 20.8 °F 24.8 °F 75% 30.13 in 10.0 mi West 17.3 mph - N/A   Scattered Clouds
5:15 AM 30.2 °F 18.9 °F 24.8 °F 80% 30.13 in 10.0 mi West 16.1 mph - N/A   Scattered Clouds
5:35 AM 30.2 °F 19.3 °F 24.8 °F 80% 30.14 in 10.0 mi West 15.0 mph - N/A   Mostly Cloudy
5:55 AM 30.2 °F 18.9 °F 26.6 °F 86% 30.15 in 10.0 mi West 16.1 mph - N/A   Mostly Cloudy
6:15 AM 30.2 °F 17.8 °F 24.8 °F 80% 30.15 in 10.0 mi West 19.6 mph - N/A   Mostly Cloudy
6:35 AM 30.2 °F 18.9 °F 24.8 °F 80% 30.16 in 10.0 mi West 16.1 mph - N/A   Mostly Cloudy
6:55 AM 28.4 °F 17.0 °F 24.8 °F 86% 30.18 in 10.0 mi West 15.0 mph - N/A   Mostly Cloudy
7:15 AM 28.4 °F 17.0 °F 24.8 °F 86% 30.18 in 10.0 mi West 15.0 mph - N/A   Mostly Cloudy
7:35 AM 28.4 °F 17.0 °F 24.8 °F 86% 30.20 in 10.0 mi West 15.0 mph - N/A   Mostly Cloudy
7:55 AM 28.4 °F 15.8 °F 23.0 °F 80% 30.20 in 10.0 mi WNW 18.4 mph - N/A   Clear
8:15 AM 28.4 °F 16.2 °F 23.0 °F 80% 30.21 in 10.0 mi WNW 17.3 mph - N/A   Clear
8:35 AM 28.4 °F 16.6 °F 21.2 °F 74% 30.23 in 10.0 mi WNW 16.1 mph - N/A   Clear
8:55 AM 28.4 °F 16.6 °F 21.2 °F 74% 30.23 in 10.0 mi WNW 16.1 mph - N/A   Clear
9:15 AM 28.4 °F 17.0 °F 21.2 °F 74% 30.24 in 10.0 mi WNW 15.0 mph 20.7 mph N/A   Clear
9:35 AM 30.2 °F 19.3 °F 21.2 °F 69% 30.25 in 10.0 mi West 15.0 mph - N/A   Clear
9:55 AM 30.2 °F 20.2 °F 21.2 °F 69% 30.26 in 10.0 mi WNW 12.7 mph - N/A   Clear
10:15 AM 30.2 °F 19.8 °F 21.2 °F 69% 30.26 in 10.0 mi West 13.8 mph - N/A   Clear
10:35 AM 30.2 °F 18.9 °F 21.2 °F 69% 30.27 in 10.0 mi West 16.1 mph - N/A   Clear
10:55 AM 32.0 °F 21.2 °F 21.2 °F 64% 30.27 in 10.0 mi WNW 16.1 mph - N/A   Clear
11:15 AM 33.8 °F 23.5 °F 21.2 °F 60% 30.26 in 10.0 mi WNW 16.1 mph - N/A   Clear
11:35 AM 33.8 °F 23.9 °F 21.2 °F 60% 30.25 in 10.0 mi WNW 15.0 mph - N/A   Clear
11:55 AM 33.8 °F 23.5 °F 21.2 °F 60% 30.26 in 10.0 mi WNW 16.1 mph 21.9 mph N/A   Clear
12:15 PM 33.8 °F 23.9 °F 21.2 °F 60% 30.25 in 10.0 mi WNW 15.0 mph - N/A   Clear
12:35 PM 33.8 °F 22.8 °F 21.2 °F 60% 30.24 in 10.0 mi WNW 18.4 mph - N/A   Clear
12:55 PM 33.8 °F 23.5 °F 21.2 °F 60% 30.23 in 10.0 mi WNW 16.1 mph 20.7 mph N/A   Clear
1:15 PM 33.8 °F 23.9 °F 19.4 °F 56% 30.23 in 10.0 mi NW 15.0 mph - N/A   Clear
1:35 PM 33.8 °F 25.8 °F 21.2 °F 60% 30.22 in 10.0 mi WNW 10.4 mph - N/A   Clear
1:55 PM 33.8 °F 23.9 °F 19.4 °F 56% 30.21 in 10.0 mi WNW 15.0 mph - N/A   Clear
2:15 PM 35.6 °F 26.2 °F 19.4 °F 52% 30.21 in 10.0 mi WNW 15.0 mph - N/A   Clear
2:35 PM 35.6 °F 27.5 °F 19.4 °F 52% 30.21 in 10.0 mi West 11.5 mph - N/A   Clear
2:55 PM 35.6 °F 27.1 °F 19.4 °F 52% 30.21 in 10.0 mi West 12.7 mph - N/A   Clear
3:15 PM 35.6 °F 28.0 °F 17.6 °F 48% 30.20 in 10.0 mi West 10.4 mph - N/A   Clear
3:35 PM 35.6 °F 29.2 °F 21.2 °F 56% 30.20 in 10.0 mi West 8.1 mph - N/A   Clear
3:55 PM 35.6 °F 29.2 °F 19.4 °F 52% 30.20 in 10.0 mi West 8.1 mph - N/A   Clear
4:15 PM 33.8 °F 29.6 °F 19.4 °F 56% 30.19 in 10.0 mi WNW 4.6 mph - N/A   Clear
4:35 PM 33.8 °F 27.7 °F 21.2 °F 60% 30.18 in 10.0 mi WSW 6.9 mph - N/A   Clear
4:55 PM 32.0 °F 27.5 °F 17.6 °F 55% 30.18 in 2.5 mi WSW 4.6 mph - N/A   Clear
5:15 PM 33.8 °F - 19.4 °F 56% 30.16 in 10.0 mi Calm Calm - N/A   Clear
5:35 PM 30.2 °F - 21.2 °F 69% 30.15 in 10.0 mi Calm Calm - N/A   Clear
5:55 PM 30.2 °F - 19.4 °F 64% 30.15 in 10.0 mi Calm Calm - N/A   Clear
6:15 PM 28.4 °F 24.6 °F 19.4 °F 69% 30.15 in 10.0 mi SSE 3.5 mph - N/A   Clear
6:35 PM 28.4 °F 24.6 °F 19.4 °F 69% 30.15 in 10.0 mi South 3.5 mph - N/A   Clear
6:55 PM 28.4 °F 23.3 °F 19.4 °F 69% 30.13 in 10.0 mi South 4.6 mph - N/A   Clear
7:15 PM 28.4 °F 24.6 °F 19.4 °F 69% 30.13 in 10.0 mi SSE 3.5 mph - N/A   Clear
7:35 PM 26.6 °F - 19.4 °F 74% 30.12 in 10.0 mi Calm Calm - N/A   Clear
7:55 PM 26.6 °F - 19.4 °F 74% 30.11 in 10.0 mi Calm Calm - N/A   Clear
8:15 PM 26.6 °F 20.0 °F 17.6 °F 69% 30.09 in 10.0 mi SE 5.8 mph - N/A   Clear
8:35 PM 24.8 °F 17.9 °F 17.6 °F 74% 30.09 in 10.0 mi ESE 5.8 mph - N/A   Clear
8:55 PM 23.0 °F 13.9 °F 17.6 °F 80% 30.07 in 10.0 mi East 8.1 mph - N/A   Clear
9:15 PM 21.2 °F 16.4 °F 15.8 °F 80% 30.06 in 10.0 mi East 3.5 mph - N/A   Clear
9:35 PM 21.2 °F 14.9 °F 14.0 °F 74% 30.05 in 10.0 mi East 4.6 mph - N/A   Clear
9:55 PM 19.4 °F 14.3 °F 15.8 °F 86% 30.05 in 10.0 mi ENE 3.5 mph - N/A   Clear
10:15 PM 19.4 °F 8.6 °F 15.8 °F 86% 30.04 in 10.0 mi ENE 9.2 mph - N/A   Clear
10:35 PM 19.4 °F 10.4 °F 15.8 °F 86% 30.02 in 10.0 mi East 6.9 mph - N/A   Clear
10:55 PM 19.4 °F 10.4 °F 15.8 °F 86% 30.00 in 10.0 mi East 6.9 mph - N/A   Clear
11:15 PM 21.2 °F 10.9 °F 15.8 °F 80% 29.99 in 10.0 mi East 9.2 mph - N/A   Clear
11:35 PM 21.2 °F 10.9 °F 15.8 °F 80% 29.97 in 10.0 mi ESE 9.2 mph - N/A   Clear
11:55 PM 23.0 °F 13.1 °F 14.0 °F 68% 29.95 in 10.0 mi ESE 9.2 mph - N/A   Clear